Location: Montr�al
(45.5000°N, 73.5830°W)
Time: 03:29:18
(UTC-04:00)

Cosmos 1151 Rocket - Visible Passes

Search period start: 19 August 2017 00:00
Search period end: 29 August 2017 00:00
Orbit: 592 x 617 km, 82.5° (Epoch: 18 August)

Date Brightness Start Highest point End Pass type
(mag) Time Alt. Az. Time Alt. Az. Time Alt. Az.
19 Aug 4.9 04:02:43 10° SSE 04:06:25 29° E 04:10:08 10° NNE visible
20 Aug 3.9 04:14:57 10° SSE 04:19:05 47° E 04:23:12 10° NNE visible
21 Aug 3.1 04:28:07 14° S 04:31:48 80° E 04:36:06 10° N visible
22 Aug 5.8 03:05:44 10° ESE 03:07:35 13° E 03:09:26 10° ENE visible
22 Aug 3.0 04:41:23 17° SSW 04:44:35 61° WNW 04:48:50 10° N visible
23 Aug 5.3 03:17:43 13° SE 03:20:08 20° E 03:23:16 10° NE visible
23 Aug 3.6 04:54:35 17° SW 04:57:26 37° WNW 05:01:26 10° N visible
24 Aug 4.5 03:30:54 23° SE 03:32:44 32° E 03:36:33 10° NNE visible
24 Aug 4.3 05:07:46 14° WSW 05:10:21 23° WNW 05:13:49 10° NNW visible
25 Aug 3.6 03:44:03 37° SSE 03:45:25 53° E 03:49:35 10° NNE visible
25 Aug 4.8 05:20:55 10° WSW 05:23:20 15° WNW 05:25:51 10° NNW visible
26 Aug 2.9 03:57:10 53° S 03:58:09 89° E 04:02:27 10° N visible
27 Aug 5.5 02:33:23 14° E 02:33:52 14° E 02:36:06 10° NE visible
27 Aug 3.1 04:10:15 48° WSW 04:10:56 54° WNW 04:15:08 10° N visible
28 Aug 5.0 02:46:27 22° E 02:46:27 22° E 02:49:46 10° NE visible
28 Aug 3.7 04:23:18 32° W 04:23:48 33° WNW 04:27:42 10° N visible
